Showing default

LIZZIESAT, 59132

Orbit data source: Space-Track

LIZZIESAT, 59132 is a payload satellite owned by Sidus Space (US) in SSO that was launched on Mon, 04 Mar 2024 UTC via an FALCON 9 launch vehicle from the Air Force Western Test Range (AFWTR). Payload-class satellites include a variety of spacecraft equipped with specific instruments for various scientific and technological missions. These include communications satellites like Starlink; space stations such as the ISS; scientific satellites like the Hubble; Earth observation satellites from companies like Planet Labs, Umbra, and HawkEye 360; GPS; miniature CubeSats for education and research; and military/defense satellites.

Loading next visibility...
Identifier
59132, 2024-043AL
Orbit
SSO
Country
Flag of USUS
Related business
Manufacturer
Sidus Space
Mission
Operational Commercial Technology
Bus & Motor
LIZZIESAT, Unknown motor
Mass
~100 kg wet, ~100 kg dry
Launch date (UTC)
2024-03-04 (2 years ago)
Launch vehicle
FALCON 9
Launch site
Air Force Western Test Range (AFWTR)
Object type
Payload
Rocket body
Debris
Shape & HBR
Oct Cyl + 8 Pan, 0.7 m
Radar Cross Section
1.008 m², Medium (>0.1 m² and < 1m²)

Expand to show TLE details & history
Last TLE update: 11 hours ago

TLE from 11 hours ago
0 LIZZIESAT
1 59132U 24043AL  26106.64131897  .00002147  00000-0  83706-4 0  9999
2 59132  97.5535 241.6516 0012360 101.3385 258.9243 15.27025416117548
Epoch: 2026-04-16T15:23Z
TLE epoch observation values (Epoch: 2026-04-16T15:23:29.959Z)
Latitude
-0.00005°
Longitude
165.99083°
Altitude
489.446 km
Speed
7.619 km/s
True Right ascension
16h 06m 36s
True Declination
0° 00' 00"
Sunlit
Object was in full shadow at epoch
Visualization orbit readout
Latitude
Unknown
Longitude
Unknown
Altitude
Unknown
Speed
Unknown
Apparent Right ascension
Unknown
Apparent Declination
Unknown
Sunlit
N/A
Visualization observer readout
Local Sidereal Time
09:30:59
Azimuth
Unknown
Elevation
Unknown
Doppler factor
Unknown
Orbital elements
Apogee altitude
490.152 km
Perigee altitude
473.194 km
Semi-major axis
6,859.81 km
Eccentricity
0.00124
Inclination
97.5535°
RAAN
241.6516°
Arg. of periapsis
101.3385°
True anomaly
258.78534°
Mean anomaly
258.9243°
Eccentric anomaly
258.85482°
Mean motion
3.8201 °/min
Orbital period
94.24 mins
BSTAR
0.000083706
Loading maneuver chart data...
Computing Atmospheric mass density...
Loading historical data...
Loading historical data...
Loading historical data...
Loading historical data...
Loading historical data...
Loading historical data...
Loading historical data...

Documentation

Showing up to 5 results
|